Regional Weather Roundup
Issued by NWS

Home | Current Version | Previous Version | Text Only | Print | Product List | Glossary On
Versions: 1 2 3 4 5 6 7 8 9 10 11 12 13 14 15 16 17 18 19 20 21 22 23 24 25 26 27 28 29 30 31 32 33 34 35 36 37 38 39 40 41 42 43 44 45 46 47 48 49 50
000
ASUS43 KIND 250409
RWRIN

WEATHER ROUNDUP FOR INDIANA
NATIONAL WEATHER SERVICE INDIANAPOLIS IN
1100 PM EST SAT JAN 24 2015

NOTE: "FAIR" INDICATES FEW OR NO CLOUDS BELOW 12,000 FEET WITH NO
SIGNIFICANT WEATHER AND/OR OBSTRUCTIONS TO VISIBILITY.

* - STATION DOES NOT REPORT WEATHER SUCH AS PRECIPITATION OR FOG.

+ - STATION NOT QUALITY CONTROLLED BY THE NATIONAL WEATHER SERVICE.
    USE DATA WITH CAUTION...ESPECIALLY DEWPOINT AND RELATIVE
    HUMIDITY OBSERVATIONS.

INZ001>003-010>013-019-020-250500-
NORTHWEST INDIANA

CITY           SKY/WX    TMP DP  RH WIND       PRES   REMARKS
GARY /AIRPORT/ MOCLDY    33  29  86 CALM      29.69S FOG
KNOX *+        CLOUDY    34  29  82 SW3       29.69R
LA PORTE +     MOCLDY    36  36 100 CALM      29.69S FOG
MICHIGAN CITY+ CLOUDY    34  30  86 CALM      29.69F
MONTICELLO +   CLEAR     33  32  98 S6        29.69F WCI  27
RENSSELAER +   PTCLDY    34  34 100 SW6       29.70S WCI  29
VALPARAISO     MOCLDY    33  32  96 SW3       29.69S FOG

$$

LMZ046-743>745-250500-
SOUTHERN LAKE MICHIGAN

STATION/POSITION TIME  TEMP WIND        PRES
                       AIR  DIR/SP/G
                 (UTC) (F)  (DEG/KT/KT) (MB)
MICHIGAN CITY    0400   34  190/  3/  4   N/A

$$

INZ004-005-014>016-021>024-250500-
NORTH CENTRAL INDIANA

CITY           SKY/WX    TMP DP  RH WIND       PRES   REMARKS
GOSHEN         CLOUDY    36  32  85 SW5       29.69R
LOGANSPORT +   PTCLDY    32  32 100 SW10      29.70F FOG     WCI  24
PERU/GRISSOM   PTCLDY    33  31  94 SW8       29.70S WCI  26
ROCHESTER +    CLOUDY    37  36  93 SW3       29.70S
SOUTH BEND     CLOUDY    36  33  89 CALM      29.69R
WARSAW +       CLOUDY    36  34  93 W5        29.69S

$$

INZ006>009-017-018-025>027-250500-
NORTHEAST INDIANA

CITY           SKY/WX    TMP DP  RH WIND       PRES   REMARKS
ANGOLA *+      CLOUDY    36  25  64 CALM      29.67F
AUBURN +       CLOUDY    36  32  87 SW3       29.69S
FORT WAYNE     CLOUDY    35  33  92 SW8       29.70F WCI  29
HUNTINGTON +   CLOUDY    36  31  81 SW5       29.70S

$$

INZ028-029-035-036-043>045-051>053-250500-
WEST CENTRAL INDIANA

CITY           SKY/WX    TMP DP  RH WIND       PRES   REMARKS
GREENCASTLE +  PTCLDY    36  30  80 SW3       29.74S
LAFAYETTE      PTCLDY    34  32  92 SW3       29.71S
TERRE HAUTE    MOCLDY    35  30  82 S3        29.75S

$$

INZ030>032-037>040-046>048-054>057-064-065-250500-
CENTRAL INDIANA

CITY           SKY/WX    TMP DP  RH WIND       PRES   REMARKS
CP ATTERBURY + CLEAR     34  30  86 SW5       29.76S WCI  30
GREENWOOD *+   CLEAR     34  28  80 SW5       29.74  WCI  30
INDIANAPOLIS   FAIR      29  27  92 SW7       29.73F WCI  22
-EAGLE CREEK   PTCLDY    33  29  85 S3        29.72F
KOKOMO *+      PTCLDY    36  28  75 SW10      29.71S
MARION +       PTCLDY    34  31  90 S6        29.72S WCI  29
MT COMFORT *+  CLEAR     32  27  80 S7        29.74S WCI  26
SHELBYVILLE    CLEAR     34  28  79 S9        29.74F WCI  27
ZIONSVILLE +   CLEAR     33  29  86 S6        29.72F WCI  27

$$

INZ033-034-041-042-049-050-058-059-250500-
EAST CENTRAL INDIANA

CITY           SKY/WX    TMP DP  RH WIND       PRES   REMARKS
MUNCIE         PTCLDY    36  30  79 SW9       29.71F

$$

INZ060-061-067>069-081>083-085>088-250500-
SOUTHWEST INDIANA

CITY           SKY/WX    TMP DP  RH WIND       PRES   REMARKS
EVANSVILLE     MOCLDY    39  30  70 SW3       29.81F
HUNTINGBURG *+ PTCLDY    37  28  70 S9        29.80F
WASHINGTON +   MOCLDY    39  28  65 SW10      29.77F

$$

INZ062-063-066-070>080-084-089>092-250500-
SOUTH CENTRAL AND SOUTHEAST INDIANA

CITY           SKY/WX    TMP DP  RH WIND       PRES   REMARKS
BLOOMINGTON    CLEAR     37  32  82 SW7       29.76F
SEYMOUR +      CLEAR     34  28  80 S5        29.78  WCI  30

$$



USA.gov is the U.S. government's official web portal to all federal, state and local government web resources and services.